Wind_Speed
10 12 13 16 17 12 10 5 6 6 7 9 7 3 4 2 2 1 2 3 4 4 1 1 4 3 2 4 8 13 14 12 9 3 2 4 8 14 12 12 19 20 20 22 21 21 19 20 19 17 17 16 15 14 14 13 13 13 12 12 12 12 11 11 12 12 12 11 10 10 11 12 11 10 9 10 12 12 11 11 9 8 8 9 9 10 11 11 11 11 11 12 12 12 12 11 10
10 12 14 15 12 7 4 1 6 7 8 8 5 4 5 6 6 0 4 2 3 4 1 2 4 3 2 2 5 11 10 11 10 4 4 9 13 13 15 16 18 20 20 21 21 20 19 19 19 18 17 15 15 14 14 14 13 13 12 12 12 12 12 12 12 12 12 10 10 9 10 11 11 10 9 10 11 11 10 10 9 8 9 10 10 11 12 11 12 11 11 12 12 12 11 11 11
11 9 9 10 7 6 4 4 6 7 7 7 6 4 3 7 6 4 3 4 5 3 3 2 2 2 3 3 3 8 6 5 7 3 6 10 12 13 17 18 18 19 19 20 20 20 19 19 19 18 16 15 16 15 14 14 14 13 13 12 13 13 12 12 12 12 12 10 10 9 9 9 10 9 8 9 10 10 9 8 8 9 10 11 11 11 12 12 12 11 12 12 12 11 10 11 12
12 8 7 8 5 6 5 6 6 8 7 7 6 5 4 7 5 3 2 3 3 1 3 4 4 1 2 2 2 5 7 4 3 3 6 8 11 17 19 19 19 18 18 19 19 19 18 18 19 17 16 16 15 15 15 14 14 13 13 13 13 14 13 13 13 12 12 11 9 9 9 9 9 8 7 9 9 8 7 6 6 7 8 10 10 11 12 12 12 11 11 11 11 10 10 12 13
12 9 7 7 4 4 4 5 6 9 8 7 6 4 9 6 4 2 3 2 2 3 2 2 4 4 1 5 2 2 7 4 3 6 8 9 15 20 20 20 18 17 17 18 18 19 18 18 19 18 16 16 16 16 16 14 14 13 13 13 13 14 13 13 13 12 11 10 9 8 8 8 8 7 7 7 6 6 6 6 7 6 7 9 10 11 12 11 12 11 11 11 10 10 11 12 12
11 8 5 6 3 2 4 6 7 9 9 10 7 4 9 6 4 3 2 2 2 3 2 2 1 4 5 7 6 5 5 4 5 7 9 12 17 21 21 20 17 16 17 17 17 18 17 18 19 18 17 16 17 17 16 15 13 13 13 13 14 14 13 13 12 12 11 10 9 9 8 8 7 7 6 5 5 5 5 7 8 8 8 10 10 11 11 11 11 11 11 11 10 11 12 12 12
8 6 4 5 3 3 7 9 10 10 11 13 12 7 8 7 3 5 4 4 3 3 1 2 1 3 5 6 6 8 7 5 5 7 12 16 18 20 20 18 16 17 17 16 16 18 18 18 19 18 18 18 18 17 16 15 13 13 13 13 13 13 12 12 12 11 11 10 10 9 8 8 7 6 5 5 4 4 5 7 8 8 10 10 10 11 11 11 11 11 11 10 11 11 11 11 12
6 5 3 5 5 5 8 11 11 10 12 14 14 10 4 4 3 8 4 2 2 3 2 2 1 4 4 4 4 7 8 9 9 12 16 18 19 19 18 17 17 17 16 15 17 18 18 18 19 18 19 20 19 17 15 15 14 14 14 13 13 12 12 12 12 11 11 10 10 9 8 7 7 6 5 4 4 3 5 7 8 9 11 11 10 10 10 10 10 10 10 10 10 10 11 10 10
8 6 3 4 6 8 10 11 12 12 15 15 13 9 4 2 4 8 5 4 2 1 1 5 4 3 2 3 7 8 8 10 12 15 16 18 19 18 16 16 17 17 16 16 18 18 17 18 18 18 20 20 18 17 15 15 15 15 14 13 12 12 12 11 11 11 11 10 9 9 8 7 6 5 4 4 3 3 5 7 8 8 10 11 10 10 10 9 9 9 9 9 9 9 9 9 9
7 7 5 5 6 10 11 11 12 13 17 17 15 11 6 8 9 8 8 6 3 2 1 3 5 3 0 5 9 5 7 10 13 14 16 17 18 17 15 16 16 17 17 17 18 16 17 18 18 19 20 19 18 16 16 16 15 15 14 13 13 12 12 12 11 10 10 10 9 8 6 5 5 4 3 3 2 2 6 7 7 7 8 9 9 10 10 9 9 9 8 7 7 7 7 8 8
6 6 7 7 8 11 11 12 11 12 16 18 18 13 9 10 11 8 8 6 3 4 0 2 6 2 2 6 8 5 9 10 13 15 16 17 15 17 15 15 16 16 17 17 17 15 16 18 18 20 19 18 18 17 17 16 15 14 14 13 13 12 12 11 11 10 10 9 7 6 5 4 4 4 3 3 3 4 7 7 6 6 7 8 9 10 10 9 9 9 7 6 6 6 6 6 7
8 8 8 9 10 10 12 13 11 13 16 18 18 13 9 11 12 9 9 7 4 5 5 5 2 3 5 5 7 7 12 10 13 16 16 16 15 16 14 15 16 15 17 18 17 15 16 17 18 18 18 18 17 17 17 16 15 14 13 13 12 12 12 11 10 10 9 7 6 5 4 4 4 4 4 4 5 6 7 7 6 6 6 7 8 9 10 10 10 8 7 6 5 4 4 4 5
9 10 9 10 11 11 13 14 13 14 13 17 16 14 14 12 13 12 9 6 5 7 6 2 3 5 5 5 8 7 11 11 14 16 16 15 15 14 14 15 15 16 17 17 17 15 16 17 17 17 17 18 17 17 17 15 15 14 14 13 12 12 12 11 10 9 8 7 6 5 5 4 4 3 4 5 7 8 9 8 7 6 6 6 6 7 9 9 8 7 6 5 4 3 3 3 3
10 9 10 11 11 12 14 13 15 15 12 16 14 13 14 11 12 11 7 6 8 7 1 5 3 5 2 4 6 6 10 13 15 16 16 15 14 14 14 15 15 16 16 15 15 15 16 17 17 17 16 17 17 16 16 15 15 14 14 14 13 12 12 11 10 9 8 7 7 6 5 5 4 4 4 6 8 10 10 9 8 7 6 6 5 6 6 7 7 6 5 4 4 3 2 2 2
11 8 9 11 12 14 15 14 17 16 13 15 15 14 13 11 12 9 8 10 8 3 5 1 1 4 1 3 2 6 14 17 17 16 16 15 14 14 14 15 15 15 15 15 15 15 16 16 16 17 16 16 17 16 15 15 15 14 14 14 13 12 12 11 10 9 9 8 7 7 6 7 7 6 5 7 8 10 9 8 8 8 7 7 6 6 6 6 6 6 5 4 4 3 3 2 2
10 10 9 11 14 16 15 14 18 16 14 15 14 16 15 13 11 9 10 9 7 2 1 6 2 2 4 2 3 14 20 19 18 17 16 16 15 14 14 14 14 14 13 14 15 15 15 16 17 16 16 17 17 16 15 15 15 15 14 13 13 13 12 11 10 9 8 8 7 8 8 8 7 7 7 6 7 8 8 7 7 7 7 7 7 7 6 6 6 6 5 5 4 4 4 4 4
10 11 11 13 15 18 15 15 17 13 15 15 9 12 13 11 11 9 7 6 10 5 5 6 1 2 3 5 11 20 21 20 19 18 17 16 15 14 14 13 14 13 12 13 14 14 15 16 17 16 16 18 17 17 17 15 16 15 13 14 13 13 12 11 9 8 7 7 8 9 10 8 5 5 6 5 5 4 6 7 7 6 6 6 7 7 6 6 6 6 6 6 5 5 5 6 6
11 10 13 15 15 18 15 16 17 14 17 14 10 14 13 11 11 9 7 8 14 11 7 6 3 1 3 8 16 20 20 21 20 19 18 16 15 14 14 14 14 13 13 14 14 14 15 15 16 16 16 18 17 18 18 16 16 16 14 14 13 12 11 10 9 8 7 8 8 9 8 7 6 5 5 4 4 3 4 6 6 5 5 5 5 6 6 6 6 5 6 5 6 6 7 7 7
12 11 14 16 17 18 17 19 19 17 18 16 14 15 14 14 15 11 11 12 15 14 10 9 8 6 7 8 15 19 19 20 20 19 17 16 14 14 14 14 14 13 13 14 14 14 15 15 16 16 17 18 17 18 19 17 17 17 16 15 14 13 12 10 10 9 9 9 8 7 7 8 7 7 7 6 5 4 4 6 6 5 5 5 5 5 5 6 6 5 5 5 5 5 6 10 11
14 14 14 17 19 20 20 22 21 20 19 19 17 13 14 14 15 14 13 12 15 14 11 11 11 9 10 10 13 17 19 19 20 18 17 16 15 15 15 14 14 14 14 14 15 14 14 16 16 16 17 17 17 18 19 18 18 18 17 17 15 14 12 10 11 10 9 8 8 7 7 8 7 8 9 8 6 5 3 5 6 5 5 5 6 6 5 5 5 5 4 3 5 6 8 10 9
14 16 17 19 20 21 23 24 22 21 19 19 19 16 15 13 12 14 14 13 12 13 12 13 15 13 14 14 15 16 17 18 19 19 18 17 16 15 14 14 14 15 14 15 17 16 15 17 17 17 17 17 17 17 17 17 18 17 17 16 15 14 12 10 10 9 9 8 8 8 7 7 7 7 7 9 8 6 4 4 4 4 4 5 4 5 6 5 5 7 6 4 6 9 8 6 3
14 19 24 23 22 21 22 24 23 21 20 21 22 21 17 11 11 15 18 16 11 12 13 12 14 13 17 15 16 16 15 17 18 18 19 18 17 16 14 14 15 15 15 16 18 17 15 16 17 17 17 17 17 16 15 16 17 16 16 15 13 12 11 10 10 9 8 9 8 7 7 6 5 6 5 5 6 5 4 4 3 2 4 5 3 4 6 4 5 8 7 5 6 6 4 2 1
15 18 25 26 26 24 20 21 23 22 21 23 22 19 17 14 13 15 19 19 13 16 13 4 6 7 16 12 14 16 15 16 17 18 20 19 17 16 15 14 15 16 15 16 19 18 16 17 17 18 17 17 17 15 14 15 16 15 14 13 12 11 11 10 9 8 8 9 8 7 6 5 4 5 4 4 4 5 4 3 3 3 3 4 2 3 4 3 3 3 3 3 2 2 2 2 2
20 19 23 26 28 27 24 22 21 22 23 25 23 17 19 21 15 13 18 19 14 17 13 3 5 1 12 12 13 15 14 15 17 18 19 18 17 16 15 14 14 16 15 16 19 18 17 18 18 17 17 17 17 15 14 15 14 13 13 12 11 11 10 10 9 9 9 9 8 6 5 4 4 4 3 3 3 3 4 3 4 3 2 2 1 2 2 2 1 1 2 2 3 1 1 2 3
23 23 22 23 25 26 26 26 24 23 21 21 23 21 22 21 17 14 16 17 15 18 14 7 6 4 7 11 12 13 13 14 16 18 18 18 17 16 17 15 15 17 17 17 18 19 18 18 18 17 17 17 16 15 14 15 14 13 13 12 11 11 10 10 10 9 8 8 7 6 4 4 3 3 3 2 2 3 3 4 3 3 3 2 1 1 2 1 2 2 1 3 3 0 2 3 2
20 24 23 21 22 25 25 25 28 26 17 16 22 25 23 20 19 16 17 17 14 17 15 7 7 6 7 8 11 12 13 14 16 17 17 18 17 16 17 16 16 17 17 18 17 19 19 18 18 18 17 17 16 15 15 14 14 13 13 12 11 11 10 9 10 9 8 7 7 6 5 4 2 3 3 2 2 3 3 4 4 4 3 2 1 0 2 1 1 1 0 3 3 1 3 2 1
18 22 24 26 23 23 24 22 27 28 22 20 22 24 25 22 18 14 17 17 14 16 13 9 7 8 9 9 10 11 12 14 16 17 17 18 17 17 18 17 17 18 17 19 17 17 19 18 18 18 17 17 16 15 15 14 14 14 12 12 11 11 11 10 10 9 8 8 7 6 5 4 3 3 3 3 3 3 4 4 4 4 4 3 2 2 1 0 0 1 1 2 2 2 3 2 2
19 22 21 27 24 21 24 22 23 24 22 25 22 21 25 23 20 18 17 15 15 15 10 9 9 11 11 10 10 10 10 14 17 16 17 17 17 18 20 19 18 18 17 19 18 18 19 19 18 18 17 17 16 15 15 14 14 14 13 12 11 12 12 11 10 9 8 8 8 7 6 5 4 3 3 4 4 4 5 5 5 4 4 4 3 2 2 1 1 1 1 1 2 3 3 3 3
19 22 17 19 21 21 27 24 19 19 19 23 21 18 23 24 24 24 20 15 15 14 11 11 12 13 12 10 10 9 10 14 16 16 17 19 18 20 21 20 18 18 17 17 18 20 19 19 18 18 17 17 16 15 15 14 14 13 13 12 12 13 13 11 10 9 9 8 8 7 6 6 5 4 4 5 5 5 5 5 6 5 5 4 3 3 2 1 1 1 1 1 2 2 2 3 2
17 19 14 13 15 18 26 23 19 22 20 20 19 15 19 25 26 25 20 17 15 14 15 16 13 12 12 10 10 10 11 13 15 16 18 20 19 20 21 21 19 18 19 18 17 20 20 18 18 17 17 17 16 15 14 13 13 13 13 12 13 13 12 11 10 9 9 8 7 6 6 6 4 4 4 5 5 5 5 6 5 5 5 4 3 2 2 1 2 1 1 1 1 1 2 2 2
14 16 14 12 11 14 23 23 22 24 19 21 21 14 17 22 24 24 20 18 19 17 18 17 14 13 13 10 10 11 11 13 15 17 18 21 19 19 21 21 19 18 19 20 19 20 19 18 18 17 17 17 16 15 14 13 14 14 13 12 13 13 12 11 9 9 9 8 7 7 6 5 5 4 4 5 5 5 5 5 5 5 4 3 3 2 2 2 2 2 2 2 0 0 2 3 3
13 14 13 13 11 13 21 23 23 24 19 23 23 15 18 20 21 23 20 20 21 20 19 19 17 15 14 12 12 11 11 13 16 18 19 20 20 19 20 21 19 19 18 20 21 21 19 18 18 18 18 18 17 16 15 14 15 14 13 13 13 12 11 10 9 8 8 7 7 7 6 5 5 5 5 6 5 5 5 5 5 4 4 3 2 1 1 1 1 2 3 3 1 0 2 3 4
12 13 13 14 16 14 16 20 26 27 21 23 25 18 15 17 20 22 20 22 23 20 20 21 18 16 15 12 12 11 11 13 15 17 20 21 21 19 20 21 20 19 18 20 21 20 20 19 18 18 19 19 18 17 16 15 15 14 13 13 13 12 10 9 8 8 7 7 6 6 7 6 5 5 5 6 5 5 5 5 5 4 3 2 2 0 0 1 2 2 2 3 1 0 2 3 6
11 13 13 17 20 17 15 18 24 29 25 24 28 23 18 17 19 21 22 24 24 21 20 20 18 17 15 13 12 12 12 13 14 17 20 21 21 19 19 21 20 19 20 21 21 21 21 20 19 19 19 19 19 18 17 15 15 14 13 13 12 11 10 8 8 8 7 6 5 5 6 6 5 5 5 5 6 5 5 5 5 3 2 1 1 1 0 1 2 2 1 2 1 1 3 6 7
15 15 14 16 20 20 19 18 18 26 28 26 27 25 23 22 19 21 22 22 22 21 19 19 19 18 16 14 13 13 13 14 14 17 21 20 19 18 18 20 19 19 21 21 22 21 20 20 19 18 19 20 19 18 17 15 15 13 12 12 12 11 9 8 8 8 6 5 4 5 6 6 6 6 5 5 6 5 5 5 4 3 1 0 1 2 1 1 1 2 1 2 3 2 4 8 9
22 20 17 16 17 17 20 20 18 24 25 26 26 24 24 24 22 20 15 16 19 19 19 17 18 18 16 15 14 14 15 14 15 19 22 20 19 18 17 19 19 20 21 22 23 22 21 20 19 18 20 19 17 18 17 14 14 14 13 13 11 10 8 7 8 7 7 7 5 5 6 5 5 6 6 5 5 5 4 4 3 2 1 1 0 2 2 3 2 2 3 4 4 5 7 10 11
24 20 18 18 16 16 19 21 20 23 20 22 26 25 22 23 23 21 15 17 18 20 20 18 17 17 15 16 16 16 15 14 16 21 23 22 20 19 18 19 20 21 22 23 23 23 22 21 19 19 20 20 18 18 17 15 16 15 13 12 10 9 8 8 8 6 6 7 6 5 5 5 6 6 6 5 5 4 4 4 3 1 1 0 0 1 1 2 3 3 4 4 5 6 8 9 11
23 18 17 17 15 17 19 20 21 22 17 18 25 24 22 22 23 23 20 20 20 21 21 19 19 17 15 17 18 17 14 13 15 18 21 22 21 20 20 19 22 23 22 24 24 22 21 20 19 19 20 21 19 18 17 18 16 14 13 13 11 9 8 8 8 7 7 7 6 5 5 6 6 6 6 5 4 4 3 3 2 0 0 0 1 2 2 3 3 3 4 4 4 5 7 9 10
20 17 18 16 15 16 18 20 23 21 14 15 23 22 19 22 22 23 23 20 19 21 21 20 19 18 16 16 17 17 15 14 16 16 18 21 21 20 20 19 21 22 21 24 24 21 20 20 19 19 20 19 19 18 18 18 16 14 14 14 11 9 9 9 9 8 8 8 8 7 6 6 6 6 5 4 4 3 2 2 1 0 1 1 2 3 3 3 3 3 3 4 4 5 6 6 8
17 17 16 14 16 17 14 17 22 18 13 14 20 18 15 18 19 21 22 21 19 20 22 21 19 19 17 17 16 17 17 16 18 18 17 19 21 21 20 19 21 21 19 20 21 21 21 20 20 20 20 18 18 19 18 17 16 15 14 14 11 10 9 10 9 7 7 8 8 7 6 6 5 5 4 3 3 2 2 1 1 1 2 2 3 3 4 3 3 3 3 3 3 5 5 4 4
17 21 17 14 19 21 17 17 17 14 14 17 18 14 12 17 19 19 19 21 21 21 22 22 20 18 17 17 16 16 18 17 18 19 17 17 20 21 21 20 20 20 22 22 24 26 23 21 23 22 22 20 17 19 18 18 18 17 16 15 13 11 10 9 9 9 8 9 9 7 6 5 5 5 4 3 3 2 1 2 2 2 3 3 4 4 4 4 4 4 4 3 2 2 5 4 2
16 22 23 19 21 23 21 20 18 12 12 17 19 12 10 16 21 20 18 19 21 21 22 23 20 19 18 16 16 16 17 17 17 19 18 17 19 21 21 20 19 21 26 29 30 31 25 22 23 22 21 20 17 20 20 19 20 18 19 20 17 14 12 11 11 12 11 9 9 8 7 6 5 5 4 4 4 3 2 3 4 4 5 5 5 5 5 5 5 5 4 4 5 4 5 5 4
12 20 25 23 22 21 21 22 19 13 11 16 20 13 8 13 18 20 19 20 22 21 22 23 20 19 18 16 16 16 17 17 17 18 18 18 19 21 21 21 21 23 27 28 25 27 26 22 21 20 20 19 18 22 21 18 19 17 18 22 19 15 15 14 13 12 12 11 10 8 8 6 4 3 3 4 4 4 4 4 5 6 6 6 6 6 5 5 5 5 5 5 5 5 5 6 6
12 19 25 22 21 20 22 23 18 13 11 14 20 17 11 10 14 19 21 21 23 23 23 23 21 20 19 18 17 17 18 18 17 17 18 18 19 21 22 22 22 22 24 25 22 24 25 22 20 20 21 20 20 21 19 17 17 16 15 17 16 15 16 15 13 12 11 11 10 8 7 6 4 3 3 4 4 5 5 5 6 7 7 6 6 6 6 6 6 6 6 6 6 5 5 6 6
15 21 24 21 20 18 18 20 16 14 13 12 17 19 13 9 12 18 23 22 23 25 25 23 22 22 21 20 18 18 18 18 18 18 19 19 20 23 24 24 23 23 24 24 24 24 25 24 22 22 22 22 21 21 20 17 17 17 16 15 16 17 16 13 14 15 13 12 11 9 8 6 5 4 4 5 5 5 6 6 7 7 7 7 7 7 8 8 8 8 7 7 7 7 7 6 6
17 20 21 21 22 18 16 15 15 15 14 12 17 20 13 10 12 15 19 21 22 22 22 22 22 23 22 20 19 19 18 17 17 18 19 20 22 25 26 25 24 24 24 24 24 25 26 25 24 24 23 23 23 23 22 20 19 18 17 16 18 19 17 14 14 16 15 13 11 10 9 7 5 4 5 6 6 6 7 7 7 7 8 8 8 9 9 9 9 10 9 9 9 8 8 8 7
20 19 18 19 19 17 14 12 13 14 12 15 21 22 17 12 11 13 15 18 20 18 18 20 22 23 23 21 19 19 18 16 16 17 18 21 24 27 27 25 25 24 24 24 25 26 26 25 24 24 23 23 25 25 24 22 19 18 18 18 20 21 20 19 18 17 15 14 13 11 9 7 6 5 6 6 6 7 7 8 8 8 9 9 9 9 9 10 10 10 10 10 10 10 9 10 10
20 17 16 15 13 14 13 11 12 11 11 17 22 24 21 14 11 14 16 18 21 20 19 22 24 24 22 20 20 18 18 17 17 17 17 19 22 25 27 26 24 25 25 26 27 28 28 26 25 25 24 24 25 25 24 22 18 18 21 21 22 23 20 20 21 20 18 17 16 13 10 9 8 7 7 7 7 7 8 8 8 9 9 9 9 9 10 10 10 10 10 10 10 10 9 9 10
19 16 15 14 11 12 13 13 11 11 12 17 22 23 19 13 12 15 17 20 21 20 20 22 24 24 22 22 21 18 18 18 18 18 17 18 18 21 25 26 25 25 27 27 27 29 28 26 27 27 26 25 25 24 23 21 18 20 22 23 23 22 19 19 19 20 18 17 17 15 13 11 10 10 10 9 8 8 9 9 8 9 9 9 10 10 10 10 9 9 9 9 9 9 9 9 9
17 16 14 13 11 11 14 13 11 12 13 17 22 20 14 11 14 17 17 18 21 20 19 21 23 24 23 22 22 19 19 19 18 17 17 18 18 20 25 26 25 26 27 27 27 28 28 26 27 28 27 27 27 25 23 21 21 22 22 23 23 21 20 19 18 18 17 15 15 15 14 13 11 11 11 11 10 10 9 9 9 10 10 10 10 11 10 10 10 10 10 10 10 10 10 10 9
17 17 15 13 11 11 13 12 12 14 13 17 20 16 13 11 10 16 19 14 18 20 18 20 22 22 21 21 21 20 20 19 17 17 18 18 20 23 25 25 25 27 28 28 27 27 27 26 27 28 28 28 28 26 25 23 23 23 22 22 22 21 21 20 18 18 17 15 15 15 15 14 13 12 12 12 12 11 11 11 11 11 11 11 11 11 11 10 10 10 10 10 10 10 10 10 10
15 16 15 13 12 11 10 11 12 12 11 13 13 10 12 9 2 10 18 13 15 18 19 20 21 22 21 19 20 19 18 17 17 17 18 19 22 24 25 24 25 27 28 28 27 27 27 27 27 28 28 28 28 28 27 24 24 24 22 23 23 22 23 22 19 18 17 16 16 16 15 13 13 13 13 13 13 12 12 12 12 11 11 11 11 11 11 10 10 10 10 10 10 10 10 10 10
13 15 14 13 15 12 10 10 9 8 11 10 9 9 12 10 3 7 16 16 16 17 18 21 21 22 22 18 18 18 17 17 17 17 18 20 22 24 25 25 24 26 28 28 28 27 27 28 28 27 27 27 27 28 26 25 25 23 22 24 23 22 23 22 19 18 18 18 17 15 15 14 13 14 15 14 13 13 13 13 13 12 12 11 11 11 11 11 10 10 10 10 10 10 9 9 9
12 14 15 15 16 12 9 9 7 9 11 9 12 15 13 11 9 9 15 17 18 18 18 20 20 22 22 19 18 18 18 18 18 19 19 19 20 22 25 26 25 26 29 30 29 28 27 28 28 27 27 27 27 26 25 23 24 23 23 25 23 22 23 22 20 20 20 19 17 15 15 15 16 15 15 15 14 14 14 13 13 13 12 12 12 11 11 11 10 10 10 10 10 9 9 9 9
16 14 16 14 12 11 9 8 9 11 11 9 14 17 13 11 9 11 15 16 17 19 19 19 21 21 20 19 19 20 19 18 17 17 18 18 19 22 25 27 26 27 29 30 29 28 27 27 28 27 27 27 26 25 24 23 23 23 25 26 24 23 23 22 21 22 20 18 18 17 16 16 16 16 16 16 15 15 14 14 13 13 13 12 12 12 11 11 10 10 10 9 9 9 9 10 9
17 15 15 12 9 9 9 8 8 10 10 10 13 13 11 11 10 13 17 16 17 20 19 18 20 20 18 17 18 18 18 17 16 16 18 19 20 23 26 27 27 28 29 30 29 28 28 27 28 28 27 27 27 25 24 24 23 24 26 26 25 24 23 22 22 21 19 17 17 17 16 16 16 16 16 16 15 15 15 14 14 14 13 13 13 12 11 11 11 10 10 9 9 9 10 10 9
14 13 14 12 9 8 9 9 8 10 10 10 10 10 9 9 9 13 16 17 18 19 18 17 18 19 18 17 16 16 16 17 17 16 17 19 20 23 27 28 28 27 27 29 30 28 28 28 29 28 27 28 27 26 25 25 24 25 27 26 26 26 24 21 22 21 18 17 17 17 17 16 16 16 16 16 15 15 15 15 14 14 14 13 13 12 12 11 10 10 10 10 10 10 10 10 10
14 12 13 13 11 10 10 9 9 10 10 9 8 9 8 7 10 13 14 15 16 18 17 16 16 18 18 16 16 17 16 17 18 18 18 19 19 23 27 28 28 27 27 29 29 28 28 29 29 29 28 28 27 26 26 26 25 26 27 27 27 27 23 21 21 20 18 18 18 17 16 16 16 16 16 16 16 16 15 15 15 14 14 14 13 13 12 11 11 11 11 10 10 10 10 10 10
Wind_Direction
338 335 355 351 341 311 279 275 281 280 244 250 252 222 147 142 319 208 139 175 149 112 280 111 103 39 25 351 50 57 34 36 38 20 69 99 132 146 147 139 139 138 138 137 141 149 156 165 168 162 152 146 145 147 147 147 147 146 144 143 144 144 145 142 139 136 135 136 134 134 130 123 118 114 107 103 101 94 88 86 81 84 90 86 86 100 109 108 106 104 103 106 108 110 107 101 101
334 339 357 351 333 290 293 315 281 283 243 246 242 209 121 161 218 151 48 8 60 101 197 73 97 78 65 348 74 74 40 41 51 38 79 117 130 139 148 140 140 140 138 138 140 145 152 162 169 162 150 146 145 149 148 146 146 144 145 145 145 145 147 145 142 138 135 136 135 135 132 126 120 114 107 102 99 97 95 91 85 88 96 92 89 101 110 108 107 107 106 107 108 108 105 103 104
339 346 345 333 302 261 283 262 260 274 254 249 223 143 114 200 184 94 52 38 57 129 155 105 79 104 201 203 109 79 66 71 82 92 113 143 140 141 151 141 141 140 138 138 140 145 150 161 168 160 149 146 146 150 150 146 145 146 149 148 146 145 147 146 142 138 135 137 137 137 132 122 116 112 108 108 109 109 102 96 90 88 94 94 94 102 109 111 111 110 108 109 108 106 107 107 103
338 326 317 331 296 273 264 238 248 259 258 260 239 141 222 230 147 110 88 64 58 107 150 172 171 158 300 32 65 81 90 98 94 121 129 149 140 144 149 140 142 139 138 140 142 145 151 165 166 159 148 147 147 149 150 148 149 150 153 151 149 147 148 147 144 140 137 139 138 134 127 118 117 114 110 112 115 109 91 93 98 95 98 99 101 108 111 114 115 113 113 112 110 108 107 103 96
321 295 299 329 304 306 285 249 247 250 253 250 242 175 231 236 141 170 117 102 73 65 35 199 161 145 90 50 4 103 107 134 109 99 108 115 128 142 144 140 143 139 140 141 142 143 152 168 165 158 150 147 148 149 150 151 154 153 154 155 151 147 150 150 146 141 137 138 135 130 124 122 122 117 113 110 107 92 81 96 98 92 101 107 107 113 117 118 119 118 117 115 114 110 102 95 89
300 278 267 297 298 326 281 257 245 249 262 257 257 200 216 218 147 210 165 135 90 75 4 5 126 164 134 78 42 65 103 151 121 103 115 123 133 141 142 144 144 139 140 140 142 141 152 168 167 159 150 148 147 148 151 154 156 153 155 156 151 148 151 151 145 140 137 137 133 130 129 130 124 115 113 108 99 85 87 104 101 93 102 112 112 117 121 121 122 119 120 120 117 108 97 90 85
298 285 235 253 249 234 254 252 247 242 251 260 262 237 212 202 166 241 213 182 165 135 215 51 311 248 137 115 74 72 69 79 102 104 120 131 137 140 143 145 142 138 139 139 142 143 153 165 167 160 150 148 146 149 153 156 157 154 156 155 152 151 152 150 145 140 137 137 135 133 132 129 119 111 108 102 96 89 100 112 110 104 108 117 119 122 123 123 122 123 127 125 117 104 94 88 83
269 271 246 244 239 232 239 242 244 240 251 261 249 248 257 176 211 259 224 214 218 131 198 77 296 267 117 148 119 91 73 76 97 106 120 132 137 142 144 142 140 139 137 137 139 145 155 163 165 160 148 145 147 152 156 157 158 156 156 155 154 152 152 150 145 141 139 139 136 133 131 129 122 118 114 106 94 96 118 122 115 114 122 125 124 129 127 126 127 131 134 125 114 102 95 89 84
233 232 252 244 240 246 238 234 235 234 252 264 245 240 304 238 253 270 248 231 220 188 197 51 320 271 104 130 106 105 88 89 107 115 127 134 138 142 141 142 143 140 138 135 131 138 152 161 164 155 146 146 151 155 157 159 159 157 157 156 155 154 153 150 145 141 139 138 135 134 137 139 138 140 138 126 108 112 129 124 112 114 132 135 129 133 132 133 136 139 136 124 114 105 98 93 90
228 215 228 224 228 247 244 239 231 230 241 255 254 228 216 235 244 257 256 246 192 226 75 54 272 262 108 102 95 109 96 108 122 122 134 135 138 141 142 144 143 141 138 135 132 137 148 158 161 150 147 151 153 155 158 160 159 158 158 156 154 156 154 149 144 140 138 136 139 144 149 155 159 173 178 157 143 140 135 124 115 114 130 140 137 138 139 141 145 146 139 126 117 109 103 98 96
236 216 222 229 230 237 240 242 228 231 238 245 254 237 211 225 238 241 247 262 239 252 339 216 240 259 260 101 94 121 112 128 132 128 136 134 139 141 144 143 141 143 136 136 138 141 146 155 157 150 151 154 156 158 160 161 160 159 159 158 155 155 152 145 144 141 140 140 148 156 163 169 169 184 190 177 169 148 138 128 120 118 125 140 144 145 146 149 151 150 143 132 124 117 110 104 98
238 227 220 229 233 232 240 247 230 221 230 240 243 234 230 225 232 237 231 237 215 238 236 230 335 340 264 103 105 130 123 140 133 132 137 135 143 142 142 139 139 140 135 136 137 141 147 152 154 152 155 157 159 160 161 161 159 159 159 158 156 153 149 147 148 144 146 152 156 160 161 157 152 167 172 163 156 144 143 137 128 121 121 136 147 153 155 156 155 149 144 141 138 130 119 113 106
234 233 232 234 234 233 237 248 247 227 218 233 234 229 237 226 228 236 233 223 198 241 234 174 9 295 278 86 119 135 129 138 132 135 139 139 143 140 138 136 138 136 137 138 136 142 149 152 154 155 159 160 161 161 161 161 159 160 158 155 154 152 151 153 152 150 155 158 154 150 144 134 130 147 161 156 148 145 145 144 139 131 123 127 142 154 160 159 156 152 151 154 154 154 146 134 120
230 234 241 244 237 234 230 235 248 242 224 221 215 221 228 218 230 240 245 246 221 226 71 65 350 291 297 114 148 143 138 139 137 139 141 142 138 136 135 134 136 137 142 141 138 144 150 155 156 159 165 165 163 162 160 161 162 162 158 155 154 153 157 161 157 159 159 154 147 139 127 113 113 120 139 144 142 146 148 151 150 147 139 132 138 152 163 164 162 161 162 169 175 183 189 177 160
230 237 239 246 243 237 231 225 235 240 240 225 199 196 205 216 234 237 240 254 247 126 62 14 284 305 292 184 214 130 144 143 142 142 141 140 133 132 132 134 137 141 147 146 144 146 154 157 157 161 165 170 166 161 161 163 165 161 159 156 156 158 165 168 162 161 155 151 145 132 122 105 94 92 106 124 132 137 140 151 156 156 156 148 148 154 168 176 177 179 181 186 195 213 233 243 235
228 239 237 243 240 238 235 227 231 230 239 239 206 184 187 208 218 229 237 243 262 94 132 242 165 305 309 339 76 123 141 144 144 145 143 139 133 133 133 138 140 144 152 153 150 149 161 159 159 163 165 174 169 160 161 163 164 160 161 159 159 165 168 168 160 157 153 153 149 130 118 104 90 77 78 88 106 123 133 148 162 163 166 163 159 159 166 180 187 191 197 201 212 229 246 262 267
225 233 237 238 234 236 233 228 234 228 235 240 210 191 192 205 203 216 246 241 255 240 203 232 118 308 339 64 112 127 137 142 148 150 148 147 142 142 141 145 146 145 155 162 155 154 164 159 158 165 167 174 168 163 162 160 163 160 162 164 164 169 168 163 153 150 148 148 141 122 113 118 131 99 87 90 84 104 136 148 161 166 170 173 167 165 164 172 185 194 204 211 222 233 247 261 266
222 223 232 235 234 236 232 233 240 239 240 229 195 204 206 219 220 204 213 229 245 246 215 206 179 184 58 106 127 132 140 143 155 158 157 161 156 155 153 154 153 150 161 162 156 163 164 159 162 165 170 173 169 166 160 159 163 160 163 166 166 169 165 154 143 142 144 143 133 122 127 150 165 142 132 142 119 112 128 132 142 150 161 170 167 170 168 167 173 180 194 210 224 234 241 242 242
220 222 230 233 234 236 235 236 242 245 245 236 211 199 193 222 240 222 211 222 233 236 226 217 203 163 100 122 137 139 146 148 159 163 162 169 164 165 167 167 164 160 170 161 158 172 162 161 170 168 171 173 172 168 160 160 163 162 164 165 164 164 159 148 150 155 157 157 149 149 162 170 165 154 161 163 150 147 126 108 113 118 125 138 145 155 165 170 171 168 182 202 214 219 219 219 215
220 225 232 233 231 235 237 238 241 244 246 246 233 197 181 213 239 237 228 229 231 229 224 226 218 180 141 151 157 150 153 155 161 165 166 172 169 171 176 174 170 163 173 168 162 176 164 163 175 170 172 175 174 170 163 162 163 165 165 165 163 161 158 156 165 168 167 167 166 176 178 180 171 158 165 161 159 170 149 119 117 119 118 123 126 130 144 159 168 172 169 185 204 211 219 223 216
219 224 233 234 231 234 235 238 241 242 244 247 244 227 206 200 220 237 238 238 236 230 221 222 224 195 164 166 169 160 158 160 166 170 171 178 175 173 180 174 170 165 173 173 163 177 174 166 175 172 173 177 176 172 167 165 165 167 167 166 164 162 161 166 176 170 170 174 174 185 187 187 174 161 169 159 164 183 178 167 153 145 152 152 142 160 175 166 174 185 177 182 215 222 225 231 239
222 226 234 235 234 236 232 235 240 241 243 243 240 240 235 203 204 229 233 239 241 237 231 234 235 187 155 167 171 164 164 164 169 174 174 182 179 176 182 173 170 167 171 175 163 173 179 171 176 174 174 179 178 175 170 168 167 168 169 167 164 164 162 168 178 171 174 180 181 192 192 190 173 174 184 156 171 192 180 178 172 174 185 178 187 201 191 188 196 196 194 206 222 221 210 193 220
227 229 232 234 235 239 236 233 235 236 239 243 236 230 244 233 215 222 229 235 238 248 253 274 280 154 139 170 176 165 169 168 172 176 176 184 185 179 180 174 171 170 173 173 160 165 177 177 178 175 175 180 179 177 173 170 170 169 167 166 161 162 163 168 177 174 177 181 184 194 191 186 172 179 183 163 181 185 169 161 161 177 192 178 210 214 187 206 213 189 202 229 246 203 188 185 154
228 233 231 232 234 236 240 240 236 234 232 241 239 219 233 242 229 219 228 234 230 248 254 215 285 181 145 178 178 168 171 170 173 178 177 184 190 176 170 177 171 173 178 169 157 163 179 180 176 176 176 180 179 175 174 172 171 168 164 165 160 160 165 170 176 175 178 179 181 189 187 185 182 175 171 171 174 160 148 140 144 149 149 144 191 237 198 214 287 342 223 266 320 6 11 3 48
227 233 233 233 234 233 235 239 241 239 233 238 240 224 225 238 243 234 231 233 223 237 243 193 228 243 167 180 172 167 171 170 172 178 179 184 190 170 164 182 175 176 182 170 160 162 177 180 173 177 176 179 180 172 175 174 170 168 166 166 160 162 168 171 174 173 178 176 173 180 181 195 197 169 163 170 153 138 130 124 121 115 117 120 126 300 359 21 344 339 230 273 290 148 79 24 15
224 230 236 235 236 235 231 234 239 239 238 233 231 230 229 234 245 245 236 234 225 230 232 179 180 200 185 184 171 171 173 171 174 178 181 185 185 166 167 184 181 184 181 172 168 159 167 177 174 177 177 178 178 173 175 172 171 170 167 166 162 164 171 174 173 172 177 171 165 172 174 189 194 164 167 165 146 139 122 116 113 108 112 112 116 79 19 28 323 345 313 286 286 138 100 70 4
228 230 236 237 236 239 232 227 233 235 234 228 222 229 235 235 237 240 233 232 236 236 223 175 174 199 194 187 177 176 174 174 176 176 180 186 180 168 176 185 185 189 175 168 174 161 162 174 175 177 178 178 178 176 174 172 173 172 168 165 163 168 173 178 177 173 175 166 160 168 168 174 177 174 175 164 154 140 125 115 113 112 112 111 111 111 89 79 103 39 10 323 351 36 61 58 47
236 235 236 236 234 238 235 228 231 231 228 226 224 228 235 237 232 232 228 219 229 238 220 185 201 222 209 188 181 176 175 178 178 179 182 187 183 178 184 186 186 185 174 172 170 158 163 173 175 177 178 179 181 178 174 174 175 172 168 164 166 172 174 179 179 173 173 163 159 165 167 171 174 178 171 161 158 141 132 122 115 114 112 116 116 111 127 139 108 70 44 30 25 36 52 47 54
237 238 237 235 231 233 234 231 229 227 224 222 223 230 234 234 228 229 230 215 212 213 214 214 213 230 222 188 185 181 177 181 181 185 185 187 185 181 185 186 185 179 171 179 167 154 164 173 174 178 178 179 182 180 176 177 175 170 168 166 170 173 176 180 176 173 172 159 156 162 166 170 170 173 163 154 151 141 134 125 118 117 113 114 114 109 112 107 96 79 59 56 44 49 75 60 67
234 233 235 234 229 227 227 223 217 223 225 215 216 229 231 230 228 229 227 215 205 194 209 223 210 223 229 192 192 191 179 185 187 187 184 187 186 180 184 184 184 178 166 175 170 156 165 173 174 179 178 179 181 180 179 178 174 170 169 170 174 176 178 178 172 172 167 157 157 163 167 168 167 165 156 147 145 140 127 119 117 116 115 114 110 104 103 97 78 59 20 47 41 18 82 81 81
229 227 229 229 229 224 218 211 209 218 218 208 213 231 233 227 225 227 220 209 212 206 209 221 208 212 222 199 199 197 185 189 188 187 183 186 187 181 183 179 180 182 168 169 168 159 167 174 175 178 178 179 180 180 181 179 174 171 171 172 175 177 178 173 170 170 166 162 164 166 170 170 165 162 155 149 145 139 126 117 114 109 109 110 101 95 90 79 65 47 17 9 331 138 94 95 90
218 221 221 217 226 227 212 203 208 215 209 206 214 230 235 228 224 224 213 203 214 212 207 218 214 209 212 202 202 198 188 187 185 187 184 183 186 180 177 172 177 188 174 165 163 159 167 174 175 177 177 179 179 179 180 177 176 174 172 174 175 177 175 171 170 169 167 166 167 171 174 169 163 160 153 147 141 136 129 117 109 102 98 98 88 99 111 79 57 35 16 360 315 173 132 112 94
211 216 219 213 218 225 214 201 205 213 211 208 214 227 233 227 228 226 210 200 210 209 207 219 217 208 209 205 202 196 187 184 184 188 184 183 184 178 174 170 178 186 168 160 164 162 167 172 177 178 177 179 177 179 179 175 177 176 172 174 174 175 173 171 171 167 167 167 172 180 171 161 157 155 147 140 132 127 124 118 115 109 101 97 85 54 8 34 25 10 4 358 345 136 145 126 111
205 210 220 220 217 220 219 207 200 206 213 210 214 224 230 227 225 226 216 203 203 203 207 220 219 208 205 209 207 197 190 185 184 185 182 183 180 174 174 170 176 180 162 159 166 167 170 173 180 181 178 179 178 178 176 172 174 174 172 172 171 172 172 171 169 161 162 164 172 177 166 159 155 145 137 130 125 121 119 119 120 116 103 95 117 236 249 27 5 1 350 13 52 161 153 140 130
208 205 214 221 219 219 218 217 198 195 208 215 215 220 227 229 225 227 223 201 192 199 210 220 219 209 200 209 215 202 194 188 183 179 176 178 173 167 168 165 172 177 166 163 163 165 171 175 180 183 181 180 177 174 170 168 172 171 170 170 170 173 171 169 164 154 153 155 158 166 161 155 146 134 128 125 122 123 123 120 115 105 93 68 239 252 244 96 24 38 74 88 100 118 134 134 129
219 214 217 221 221 223 219 222 209 192 203 216 218 221 221 223 227 229 212 180 188 204 212 217 214 208 197 203 215 207 198 191 183 176 171 170 163 159 161 162 171 175 168 162 161 166 172 176 181 184 183 178 171 171 170 167 170 172 172 171 171 171 164 160 154 149 155 153 150 158 152 141 139 133 126 123 118 117 116 111 106 90 329 305 289 289 331 42 77 97 92 101 114 115 121 129 128
232 226 226 225 225 230 220 220 215 196 200 214 217 223 220 216 223 222 187 169 196 208 209 214 211 210 204 200 206 203 198 190 178 171 167 165 160 158 162 168 174 173 166 161 163 170 173 176 182 183 180 173 169 172 171 169 174 177 171 164 166 162 155 153 147 145 153 146 142 155 152 138 135 131 124 120 117 114 107 95 91 58 303 279 122 267 325 53 105 122 104 108 126 134 133 136 138
237 234 230 224 221 229 220 217 216 199 196 213 217 221 220 215 219 220 200 186 199 206 209 213 211 214 210 200 201 199 194 183 170 162 160 162 160 161 166 172 177 171 164 163 166 170 173 177 181 180 175 171 173 174 171 172 175 174 164 157 163 163 160 161 149 140 136 132 136 141 143 141 134 129 123 116 105 94 90 86 84 42 282 198 149 159 148 121 125 127 123 124 128 144 148 148 158
235 237 231 225 220 224 220 216 214 201 193 213 215 215 220 218 216 219 211 196 200 207 210 214 214 216 211 200 199 194 185 177 169 159 157 162 160 163 170 174 176 171 163 165 167 168 173 178 178 175 173 171 173 175 173 169 168 168 163 162 169 171 167 161 147 136 131 132 137 132 130 135 131 129 119 98 82 69 66 84 109 166 169 166 150 138 131 122 120 116 122 128 132 150 156 159 180
231 234 226 229 228 218 214 214 210 199 194 213 215 212 220 220 213 218 212 197 199 206 210 216 217 217 211 202 200 189 180 179 173 163 160 164 164 170 175 173 173 168 156 156 164 169 173 174 174 173 172 170 170 175 172 163 162 162 159 161 164 159 152 145 137 134 135 134 133 126 121 119 113 119 115 99 91 78 80 123 165 170 145 140 138 130 123 115 110 104 96 110 144 160 152 155 188
226 230 220 224 229 217 209 206 199 194 199 213 218 211 215 216 210 214 209 194 198 204 208 215 215 216 212 202 200 190 180 181 174 165 162 163 169 174 174 172 170 157 147 153 167 174 172 172 176 175 172 171 170 174 169 162 161 157 154 153 146 143 141 141 143 144 145 142 137 132 127 128 128 124 120 115 111 106 135 154 161 149 124 116 117 118 114 107 102 97 91 89 88 121 130 132 145
221 224 218 224 229 219 212 202 192 198 203 206 216 218 207 209 209 210 205 195 200 204 207 212 211 210 209 199 198 191 182 183 175 166 164 166 169 170 168 168 157 143 153 167 174 176 175 180 184 175 170 173 171 171 169 165 164 159 158 157 152 152 154 159 162 158 156 150 141 138 135 134 137 133 120 108 106 117 142 142 136 129 120 110 105 109 108 103 95 88 89 93 88 90 112 117 103
218 214 214 227 232 217 212 207 199 207 209 200 209 224 216 203 207 207 203 198 199 204 208 209 205 204 204 198 194 190 186 185 179 169 167 167 165 166 166 161 150 149 163 171 173 178 182 188 185 173 172 172 167 171 172 170 168 163 165 169 168 165 161 166 168 160 155 150 140 137 139 132 127 140 127 106 110 124 133 129 121 117 116 110 103 105 102 98 92 85 89 96 96 96 107 112 107
221 208 206 224 235 220 212 214 211 208 213 205 202 217 233 213 202 201 203 202 199 204 208 204 201 200 199 197 192 188 188 187 181 172 169 166 163 166 163 157 158 162 165 166 171 181 185 188 183 175 176 171 166 172 173 170 170 170 172 174 176 173 166 165 162 153 147 149 150 140 134 133 123 121 112 110 120 128 130 119 111 109 108 107 104 101 95 92 92 89 90 90 88 89 94 104 106
224 210 202 215 231 231 224 219 217 211 215 215 200 206 227 224 203 198 199 203 202 203 204 201 199 197 196 197 191 186 188 187 182 175 169 163 161 164 160 158 166 166 162 164 171 178 182 186 185 178 178 175 171 173 172 170 172 176 178 175 176 176 169 160 159 163 161 161 166 150 133 134 129 119 116 123 127 127 128 116 109 109 107 106 104 101 98 95 93 90 90 90 88 85 82 91 99
224 215 206 211 218 231 238 221 213 212 214 222 204 197 212 224 210 198 194 202 205 202 202 200 198 195 194 194 191 187 187 186 183 176 168 159 159 161 157 159 169 168 166 168 171 176 179 182 182 178 178 178 176 175 172 174 179 179 178 177 177 173 166 159 161 169 168 165 165 154 139 134 134 136 133 133 134 130 125 117 114 112 106 106 104 103 103 100 97 94 92 92 92 89 84 84 89
216 215 211 207 208 221 236 226 217 213 212 226 215 198 203 220 216 206 198 200 202 199 199 199 197 195 192 190 191 189 185 185 183 175 166 157 153 154 154 162 170 167 167 169 170 175 177 176 176 176 178 177 176 175 174 178 185 183 179 179 178 172 166 165 164 165 165 163 161 154 148 149 156 160 152 144 141 133 123 119 120 115 109 107 105 104 104 104 104 100 94 90 90 88 87 86 84
209 214 212 202 200 209 219 226 226 218 209 221 220 206 204 214 216 210 202 196 199 200 199 197 195 193 189 188 191 188 182 185 182 173 166 154 147 149 155 166 169 163 165 167 168 174 177 177 176 176 178 179 177 175 176 182 185 183 183 182 179 175 171 170 168 165 163 164 161 153 154 165 168 166 163 155 146 138 129 125 122 117 114 112 111 110 108 108 107 104 97 93 92 89 88 88 85
202 212 209 197 196 197 203 214 217 218 217 215 216 211 206 214 222 218 205 191 195 204 202 198 194 190 188 187 189 186 182 185 180 172 164 151 147 152 158 165 168 165 167 167 168 174 178 180 180 177 177 178 178 176 178 183 183 183 184 182 181 179 175 174 171 166 165 165 163 159 161 170 173 172 169 160 151 143 135 131 128 123 121 118 117 116 114 114 112 109 105 100 99 94 92 93 90
200 209 201 195 197 188 193 202 203 214 223 216 212 210 209 216 218 222 218 189 186 202 205 199 193 190 189 186 186 185 182 184 179 172 164 153 153 157 160 167 171 170 170 170 171 175 177 179 181 179 176 176 178 179 179 183 185 185 181 180 183 182 176 175 172 170 170 166 164 165 168 172 174 175 170 160 154 149 139 136 131 126 125 122 122 121 119 119 117 115 112 106 102 99 97 98 95
201 206 199 201 202 190 188 192 197 205 213 213 209 206 212 218 204 213 224 199 183 200 205 197 192 190 190 185 186 187 182 181 177 171 166 157 155 158 162 170 173 171 172 173 173 174 175 177 179 179 176 174 177 180 181 184 187 184 179 181 186 181 174 173 171 172 171 168 167 168 170 173 170 170 168 158 153 148 140 136 132 128 128 127 126 125 123 123 121 120 116 109 106 104 102 102 100
198 200 200 205 201 193 192 198 208 208 207 208 206 204 211 219 166 201 217 204 182 197 202 195 190 188 189 188 188 187 180 179 176 171 167 160 156 158 164 172 172 170 172 172 172 174 174 174 176 179 179 175 175 178 181 184 186 183 180 182 183 177 173 173 170 170 170 169 169 167 169 173 169 166 163 156 151 147 141 137 135 133 132 132 131 130 127 126 125 122 119 114 112 111 109 108 105
194 199 203 208 204 199 196 203 215 216 211 203 199 209 207 203 181 195 212 201 179 190 200 194 189 188 189 190 188 184 179 179 176 172 170 163 159 161 167 173 173 171 171 171 173 174 172 172 173 179 182 177 174 177 179 182 183 181 177 177 176 173 174 173 168 167 169 169 167 164 164 167 169 166 159 155 152 147 142 140 138 136 136 136 135 133 131 129 128 125 123 121 120 120 117 112 109
198 193 198 206 211 208 200 201 197 201 211 199 195 209 210 202 191 192 212 201 179 188 200 194 190 189 189 190 188 182 176 175 177 175 170 165 165 166 167 172 176 172 167 168 173 173 171 172 175 180 181 178 176 177 177 177 178 177 175 174 174 173 172 171 170 169 169 167 162 157 158 163 167 164 158 155 152 147 144 143 142 140 139 139 137 136 135 134 133 129 127 128 128 127 123 116 112
210 195 198 207 212 204 200 207 192 191 205 199 197 206 211 212 194 181 202 198 180 190 198 195 192 189 188 187 185 182 174 171 176 174 169 168 169 169 166 169 175 173 165 164 170 173 172 173 177 180 180 178 178 176 174 174 175 175 176 175 174 173 172 172 173 170 166 162 155 151 157 162 163 160 158 155 151 149 149 147 146 144 142 142 141 140 140 139 136 133 133 134 135 134 127 121 118
210 205 205 211 216 205 202 211 199 195 203 197 196 202 210 215 193 177 193 195 188 194 195 195 192 187 187 184 181 181 174 170 172 171 173 174 171 170 168 168 173 174 168 166 169 174 174 172 175 179 179 177 178 177 175 174 173 175 177 176 174 174 174 174 171 168 164 158 152 152 159 163 161 160 158 155 154 153 153 152 150 147 146 147 146 146 145 143 140 140 141 141 141 139 131 127 125
202 206 206 203 209 210 208 216 210 204 204 196 196 202 211 215 189 180 194 197 194 195 194 195 190 183 183 179 177 179 172 168 170 171 177 175 169 169 168 167 169 170 168 167 168 172 174 174 175 178 177 176 176 178 178 174 172 175 176 175 175 176 175 171 168 166 161 154 151 155 160 162 161 160 158 157 158 158 158 157 153 151 151 151 152 151 149 147 147 146 145 144 144 142 136 132 129
197 198 203 198 200 205 204 208 209 211 207 199 205 208 205 207 194 185 190 196 196 194 192 193 186 179 177 176 180 179 171 168 168 169 175 174 169 168 166 165 166 167 168 169 170 172 173 175 176 177 177 176 176 179 179 173 171 175 177 175 175 175 174 168 164 162 158 155 155 157 160 161 161 161 162 162 162 162 162 158 155 155 155 155 156 155 153 152 152 149 146 146 147 144 139 136 132
Height
781 780 777 776 772 775 772 768 787 779 769 782 769 765 765 753 752 754 758 756 758 758 748 747 746 747 754 757 759 764 770 775 785 798 802 784 776 780 781 782 783 786 788 790 792 794 797 799 801 802 804 806 808 810 812 813 813 814 815 816 816 818 819 820 820 820 821 821 822 822 823 823 823 824 824 824 824 824 824 824 824 824 824 824 824 824 825 825 826 827 827 827 827 827 827 827 827
780 779 775 776 773 778 774 768 796 792 776 785 768 763 762 754 758 761 764 761 760 756 746 745 746 749 752 751 753 764 773 771 777 785 783 776 778 781 781 783 784 786 788 790 792 795 799 800 802 803 805 806 809 811 813 814 814 815 816 817 817 818 820 821 821 821 821 822 823 824 824 824 825 825 825 825 825 825 825 825 825 825 825 825 825 825 826 826 827 828 828 828 829 829 829 828 828
779 778 775 777 775 775 774 774 797 799 791 791 773 761 759 759 760 762 764 759 755 749 747 749 751 753 753 758 758 769 780 771 771 776 777 777 777 780 782 783 785 787 789 791 793 795 799 800 802 804 805 807 810 812 813 815 815 816 817 818 818 818 820 822 821 822 822 823 824 825 825 825 826 826 826 826 826 826 826 826 826 826 826 826 826 826 827 828 828 829 829 830 830 830 830 829 829
777 777 777 777 778 778 779 786 795 798 799 793 778 763 759 759 757 761 760 755 751 746 749 751 756 752 753 770 765 769 782 775 772 772 776 775 775 779 781 783 786 788 789 791 794 796 799 800 803 804 806 808 810 812 814 815 816 817 818 819 818 819 821 822 822 822 823 824 825 826 826 826 827 827 827 826 827 827 827 827 827 827 827 827 827 827 828 829 829 830 830 831 831 831 831 830 830
777 778 777 776 786 788 785 791 791 795 795 785 778 768 760 755 755 762 757 753 749 748 750 749 758 752 752 765 762 773 783 777 773 769 773 775 775 779 781 784 786 787 790 792 794 797 798 800 803 804 806 808 811 813 814 816 817 818 819 820 819 820 822 823 823 823 824 825 826 826 827 827 827 827 827 827 828 827 827 827 828 828 828 828 828 829 829 829 830 831 831 832 832 832 832 831 831
778 777 776 776 783 786 794 801 798 797 784 772 773 766 758 753 756 761 755 752 748 748 749 749 756 753 759 762 758 770 773 773 773 768 772 776 777 779 781 784 785 788 790 792 795 797 799 801 803 805 807 809 811 813 815 816 817 819 820 821 821 821 823 823 824 823 824 825 826 827 827 828 828 828 828 828 828 828 828 828 828 828 829 829 829 830 830 830 830 831 832 832 833 832 832 832 832
778 780 779 783 785 785 803 809 801 796 778 767 768 760 755 752 755 759 756 756 752 749 748 750 750 753 765 763 764 768 765 769 768 769 773 776 779 780 782 784 786 788 790 793 795 797 800 801 803 805 807 809 811 813 815 817 818 819 820 821 822 822 824 824 824 824 825 826 827 827 828 828 828 829 829 829 829 828 828 828 829 829 829 830 830 830 830 831 831 832 832 833 833 833 833 833 833
780 782 779 790 797 793 804 806 797 792 778 765 758 754 753 752 757 759 757 758 757 753 750 749 747 758 763 756 770 772 765 769 768 772 774 776 779 780 783 784 786 789 791 794 795 798 800 801 804 805 807 810 812 814 815 817 819 820 821 822 823 824 825 825 825 825 825 827 827 828 828 828 829 829 829 829 829 829 829 829 829 829 829 830 830 831 831 832 832 832 833 833 833 833 833 833 833
777 782 783 793 805 801 798 797 794 789 780 768 756 753 755 755 759 760 759 759 756 755 752 750 749 760 760 756 772 770 766 771 771 774 775 777 779 781 783 784 787 789 792 794 796 799 801 803 804 806 808 810 812 814 816 818 819 820 822 822 823 824 826 826 826 826 826 827 828 828 829 829 829 829 829 829 830 830 830 830 830 830 830 830 830 831 831 832 832 833 833 834 833 834 834 834 834
777 780 786 796 805 807 800 793 789 785 778 771 760 753 757 758 760 761 761 758 754 755 752 749 751 756 757 761 773 770 769 772 771 775 776 778 779 782 784 785 788 789 792 794 797 800 802 804 805 808 809 811 813 815 816 818 820 821 822 823 824 825 827 827 827 827 827 828 829 829 829 829 829 830 830 829 830 830 830 831 831 831 831 831 831 831 831 832 833 833 834 834 834 834 834 834 834
783 779 781 796 804 806 802 792 785 782 774 768 761 751 754 757 760 761 761 759 755 757 753 751 754 753 754 761 772 771 770 771 772 775 776 779 781 783 784 785 788 789 793 794 798 801 803 805 807 809 810 812 814 815 817 818 820 821 823 823 824 826 827 828 828 828 828 829 829 830 830 830 830 830 830 830 830 830 831 831 831 832 832 832 831 831 831 832 833 833 834 834 835 835 835 835 835
788 782 780 796 800 797 794 787 780 777 773 770 763 752 752 755 761 763 761 760 757 760 755 752 753 752 757 764 770 769 768 772 772 775 777 780 781 783 784 786 789 790 793 795 799 801 804 806 808 810 811 813 814 816 817 819 821 821 823 824 825 827 828 829 829 829 829 830 830 830 831 830 831 830 830 830 830 830 831 831 832 832 832 833 832 832 832 832 833 833 834 835 836 836 836 836 836
785 782 782 791 787 787 789 786 777 772 773 768 760 753 751 756 762 760 757 758 759 763 754 747 749 752 759 765 768 767 768 772 772 776 778 780 782 783 785 787 789 791 794 796 799 802 805 807 809 811 812 813 815 816 818 819 821 822 823 824 826 828 829 829 829 829 829 830 831 831 831 831 831 831 831 830 829 830 831 832 832 833 833 833 833 833 833 833 833 833 834 835 836 836 836 837 836
778 776 780 785 777 778 781 783 779 772 769 757 752 751 751 757 758 753 754 760 759 756 749 743 747 756 762 766 771 768 769 772 773 777 778 781 782 783 786 788 790 792 795 797 799 802 805 807 809 811 813 814 815 817 818 819 821 822 823 824 826 828 829 829 829 829 830 831 831 831 832 832 832 832 832 831 830 830 830 832 832 833 833 833 833 834 834 834 834 834 835 835 836 837 837 837 837
772 770 776 781 777 775 770 773 775 773 764 747 745 747 752 757 752 753 756 761 755 742 745 746 747 761 764 766 773 767 767 772 774 777 779 781 783 785 787 789 791 793 795 797 799 802 804 807 809 811 814 815 816 817 818 819 821 822 823 825 826 828 829 829 829 829 830 831 831 831 832 832 833 833 833 832 831 831 831 832 832 833 833 833 833 834 834 834 834 834 835 835 836 837 837 837 837
766 768 775 779 778 775 765 763 766 769 761 742 738 740 755 758 749 755 750 750 752 742 750 752 748 757 759 759 764 761 765 771 774 778 779 782 783 786 788 790 792 794 796 797 799 802 804 806 809 812 814 815 816 817 818 819 821 822 824 826 827 828 828 829 829 830 830 830 831 831 832 833 834 834 834 834 833 832 832 833 833 834 834 834 833 834 834 834 835 835 835 835 836 836 837 837 837
762 769 778 778 775 771 761 761 759 760 754 742 739 738 755 759 748 750 742 744 753 749 751 751 747 751 753 757 759 760 767 771 774 777 779 782 783 785 788 790 792 794 796 797 799 802 804 806 809 812 813 815 815 816 818 819 821 822 824 826 827 828 828 829 830 830 831 831 831 831 832 833 834 834 835 836 835 834 834 833 834 834 835 835 834 834 834 834 835 835 835 835 835 835 836 836 836
763 773 779 774 769 761 754 756 750 746 746 743 743 741 751 761 752 745 746 753 754 751 751 749 750 750 752 758 760 763 767 771 774 776 778 780 781 784 786 789 791 794 796 797 800 802 804 806 809 811 813 814 815 816 817 818 820 821 824 826 827 828 828 830 830 831 832 832 832 831 832 833 834 835 836 836 836 835 835 834 834 835 835 835 835 835 835 835 835 835 835 835 835 835 834 835 835
763 770 772 765 759 752 746 748 744 742 742 740 740 740 748 758 752 743 750 759 754 755 755 750 754 755 757 761 763 765 767 771 773 774 777 778 779 782 784 786 790 792 795 796 800 803 804 807 809 811 812 813 814 815 816 817 819 821 823 825 827 828 828 829 830 832 832 832 832 832 833 833 833 834 835 836 836 836 835 835 835 835 835 836 835 835 835 835 835 835 835 835 834 834 833 833 833
758 762 764 755 749 748 743 741 740 739 738 739 739 739 746 752 748 742 748 756 753 755 755 754 757 757 760 764 765 766 767 771 773 775 777 778 779 781 782 784 788 792 795 796 800 803 805 807 809 811 812 813 814 814 816 817 819 821 823 824 826 827 828 829 831 831 832 832 832 833 833 833 833 833 833 835 835 836 836 835 835 835 835 835 835 835 835 835 835 835 834 834 834 833 832 832 832
754 753 754 747 744 747 742 738 737 735 735 738 737 739 743 743 745 745 748 755 755 751 747 748 750 750 755 760 763 764 766 770 772 774 776 778 778 781 782 783 788 791 795 796 800 803 805 807 809 810 811 812 813 814 815 817 818 821 822 824 826 826 828 829 830 831 831 832 832 832 832 832 833 833 833 834 834 834 835 834 834 834 835 835 835 835 835 835 834 834 833 833 833 832 832 832 832
750 747 743 741 742 743 738 735 736 734 735 737 737 739 736 734 743 746 748 755 754 743 736 736 735 739 749 755 758 762 765 769 771 773 775 777 777 779 781 783 788 790 794 796 798 803 805 807 808 809 811 811 813 814 815 817 818 820 822 823 825 826 827 829 830 830 831 831 832 832 832 832 832 833 834 834 833 833 833 833 834 834 834 834 834 834 834 834 833 833 833 832 832 831 832 832 832
749 745 738 737 738 738 735 732 733 732 736 739 734 734 734 735 743 743 743 747 743 734 728 731 732 733 746 754 756 759 764 767 769 771 773 775 775 778 780 782 786 789 792 795 798 802 804 806 808 809 810 811 812 814 815 817 818 820 822 823 824 826 827 828 830 830 830 830 831 832 832 832 832 833 833 833 833 832 832 833 834 834 833 833 833 832 833 833 832 832 832 832 832 832 832 831 831
746 743 736 735 734 735 734 730 730 730 735 735 725 729 739 742 741 738 739 738 734 733 727 731 736 735 743 754 756 758 762 765 768 770 772 774 775 777 781 783 786 789 792 795 798 801 804 806 807 808 810 811 812 813 815 816 818 820 821 823 824 825 827 828 829 830 831 830 831 832 832 832 832 832 832 833 832 832 832 832 833 833 833 833 833 832 832 832 832 832 832 832 833 833 833 832 831
740 739 735 733 731 731 731 730 729 728 729 728 724 730 739 740 736 735 737 733 731 732 728 731 739 740 743 750 754 757 760 764 767 769 771 774 775 777 781 784 786 790 792 794 797 799 803 805 806 808 809 810 811 812 814 816 818 820 821 823 823 825 827 828 829 830 830 830 831 831 832 832 831 831 832 832 832 831 832 832 832 833 833 833 833 832 832 832 832 832 832 832 833 833 833 832 832
735 735 734 731 731 728 727 729 730 729 727 727 732 737 737 734 735 736 734 730 728 728 728 733 742 746 748 749 752 756 759 762 765 767 770 772 775 777 781 785 787 789 791 793 796 798 802 804 806 808 808 810 811 812 814 815 818 819 820 822 823 825 826 827 828 829 830 830 830 831 831 831 831 831 831 831 832 831 831 832 832 833 833 833 833 833 833 833 833 833 832 832 832 832 832 832 832
729 732 734 730 730 727 724 727 730 728 726 727 735 741 738 732 736 741 733 727 728 729 730 736 744 750 750 750 752 754 758 761 763 766 769 771 773 777 781 784 786 788 790 793 795 798 801 804 806 807 808 810 811 812 813 815 817 818 820 821 823 824 826 827 827 828 829 829 830 830 831 831 831 831 831 831 831 831 832 832 832 833 834 834 834 834 834 834 834 834 833 833 832 832 832 832 833
729 731 732 728 728 728 724 725 727 726 725 725 730 741 740 733 734 737 730 727 730 733 735 739 747 750 749 751 752 753 756 759 762 764 766 769 772 776 780 783 785 787 789 792 794 797 801 803 805 807 808 809 811 812 813 815 816 818 820 821 822 824 824 825 826 827 827 828 829 829 830 831 831 831 831 831 831 831 832 832 833 833 834 834 834 834 835 835 834 834 834 834 833 833 834 833 834
732 730 733 733 731 733 728 723 725 726 727 723 729 746 745 734 730 728 725 726 730 735 740 742 746 748 746 749 751 752 755 757 760 762 764 768 771 775 779 782 784 786 789 792 793 796 800 803 804 806 807 809 810 812 813 814 816 817 819 820 822 823 823 824 825 826 827 827 828 829 830 830 830 831 831 831 832 832 832 832 833 833 834 834 835 835 835 835 835 835 835 835 835 835 835 835 835
734 732 735 738 737 736 726 721 727 730 726 720 733 753 745 729 725 724 722 724 731 739 742 742 744 747 745 746 751 751 752 755 757 759 762 766 770 773 777 781 783 785 788 791 793 796 800 802 804 805 807 808 810 812 813 814 816 817 819 819 821 822 823 823 824 825 826 826 827 828 829 830 830 830 831 831 832 832 832 833 833 834 834 835 835 835 835 835 835 835 835 835 835 835 835 835 835
737 738 736 737 741 735 720 718 727 731 724 718 734 749 737 724 723 721 719 723 732 739 741 740 741 744 744 744 750 751 750 752 755 758 761 764 768 772 776 779 782 785 787 790 793 796 799 801 803 805 806 808 809 811 812 814 815 816 818 819 820 821 822 823 824 825 825 826 827 828 829 829 830 830 831 831 832 833 833 833 834 834 835 835 835 835 836 836 836 836 836 835 836 835 835 836 836
736 743 740 736 739 731 715 715 723 728 723 719 733 740 728 722 721 716 715 721 729 734 738 738 737 740 742 742 747 750 749 750 753 757 760 764 768 771 774 778 781 784 786 789 792 795 798 800 802 804 805 807 808 810 812 813 815 816 817 818 819 820 822 823 824 824 825 826 826 827 829 829 829 830 831 831 832 832 833 834 834 835 835 836 836 836 836 836 836 836 836 836 836 835 835 836 837
733 738 740 735 735 729 718 713 716 722 722 721 727 729 725 722 718 711 710 717 725 731 736 735 734 736 738 740 743 746 748 750 752 754 758 763 767 770 774 778 781 783 785 788 792 795 797 800 801 803 804 806 807 809 811 812 814 815 816 817 819 820 821 822 823 824 824 825 825 827 829 830 830 830 831 831 832 832 833 834 835 835 836 836 836 836 836 836 836 836 836 836 836 836 836 837 839
735 733 735 728 725 725 721 713 709 715 721 721 720 720 722 719 713 709 707 712 721 729 734 733 731 732 735 739 740 743 746 749 751 751 756 761 765 770 773 777 780 783 785 788 791 794 796 799 800 802 803 805 807 808 810 812 813 815 816 817 818 819 821 822 822 823 824 824 826 827 829 830 830 830 831 831 832 832 833 834 835 836 836 836 837 836 836 837 837 837 837 836 836 836 836 838 840
731 729 730 724 718 718 717 711 703 709 719 719 717 718 720 717 710 708 703 705 718 727 731 730 728 728 732 738 740 741 743 746 748 750 755 761 765 769 773 776 780 782 785 787 790 793 795 798 800 801 803 804 806 808 810 811 813 814 816 817 818 819 820 821 822 823 823 824 826 827 828 829 830 830 831 831 832 833 834 834 835 836 836 837 837 836 836 836 837 837 837 836 836 837 837 838 841
721 718 721 721 717 713 710 706 697 702 718 717 714 715 717 718 713 708 703 706 719 727 728 726 725 725 729 736 740 739 741 743 744 749 756 761 765 769 773 776 779 782 784 786 789 792 795 797 799 800 802 804 806 808 810 812 813 814 815 816 818 819 820 821 822 823 823 824 826 827 828 829 829 830 831 832 832 833 834 835 835 836 836 836 836 836 835 835 837 837 837 837 837 837 838 839 841
717 713 715 714 715 712 702 700 693 694 711 715 710 710 712 715 713 708 708 714 723 726 726 724 722 723 726 732 736 737 738 739 741 748 755 760 765 769 772 775 778 781 783 785 788 791 793 796 797 799 801 803 805 807 809 811 812 814 815 816 817 818 820 821 822 823 824 825 826 827 828 829 830 830 831 832 833 833 834 834 835 836 836 836 836 836 836 836 837 837 837 838 838 838 839 840 841
719 715 712 708 710 708 696 695 691 689 705 713 707 709 711 710 710 704 703 713 722 722 722 722 720 720 722 725 731 733 734 736 740 748 755 759 764 768 771 774 776 779 782 785 787 790 793 795 796 798 800 802 804 806 807 809 811 813 814 816 817 819 820 821 822 824 825 826 827 828 828 829 830 831 832 832 833 834 834 835 835 836 836 836 837 837 837 837 837 838 838 838 838 838 839 840 841
723 716 707 704 703 701 696 692 688 686 701 711 706 709 711 704 703 700 696 705 715 716 716 717 717 718 719 721 727 730 733 738 742 748 754 758 763 767 770 772 774 777 781 784 787 790 792 793 795 797 799 801 803 805 806 808 810 812 814 815 817 819 820 821 822 823 825 826 827 828 829 830 831 832 832 833 834 834 835 835 836 836 836 836 837 836 836 837 837 837 838 838 838 839 839 840 840
724 714 707 710 701 697 702 694 685 684 695 706 704 706 709 701 700 698 692 698 709 712 713 712 711 713 715 717 721 725 732 738 742 747 752 757 761 765 768 771 773 776 780 784 788 790 790 791 793 794 796 799 801 803 805 806 808 811 813 815 816 818 820 821 822 823 825 826 827 829 830 830 831 832 833 834 834 835 835 835 836 836 836 836 836 836 836 837 837 837 838 838 838 838 839 839 840
722 712 708 713 699 691 696 690 686 690 698 702 702 708 709 699 700 698 690 695 705 709 711 711 708 708 710 714 718 722 728 734 739 744 750 754 759 763 766 769 772 775 779 783 785 786 787 789 790 791 794 796 799 802 804 805 807 809 811 813 815 818 820 821 822 824 825 826 827 829 830 831 832 833 834 834 834 835 835 835 836 836 836 836 836 836 836 837 837 838 838 838 838 838 838 839 839
723 712 704 705 695 687 687 684 689 705 712 703 700 714 713 695 694 696 690 694 703 705 708 709 707 706 708 713 718 721 724 730 734 739 746 751 756 760 764 767 771 774 776 779 780 782 785 786 788 791 793 795 798 801 803 803 805 807 809 810 812 815 818 820 821 823 825 826 827 829 831 832 833 833 834 834 834 835 835 835 835 835 835 835 836 836 836 837 837 838 838 838 839 838 839 839 839
722 708 700 700 692 686 687 685 692 709 714 699 694 711 712 695 690 690 688 694 701 703 704 705 704 705 706 710 715 719 722 727 732 736 742 747 752 757 762 766 769 772 774 777 780 781 783 785 787 790 793 794 797 800 801 802 804 807 808 809 811 814 817 818 821 823 824 826 827 829 830 831 832 833 833 833 833 834 835 835 835 834 834 835 835 836 836 837 837 837 838 839 839 839 839 839 839
717 702 700 705 695 689 690 688 690 698 702 696 692 702 706 697 689 684 686 693 699 702 701 700 701 702 704 707 711 715 719 722 727 733 738 744 750 754 760 764 767 770 772 775 779 781 782 784 786 789 792 794 796 798 800 802 804 806 809 810 812 814 816 818 820 822 824 826 827 828 829 830 832 832 833 833 833 834 834 835 835 834 835 835 836 836 836 837 837 838 838 838 839 839 840 840 840
710 696 698 706 701 696 691 688 690 690 699 704 694 695 707 702 685 679 684 692 697 699 697 697 697 698 702 705 708 712 715 718 721 728 734 741 747 752 758 763 765 768 771 774 776 779 781 783 786 788 791 794 795 797 799 802 804 805 808 810 812 814 815 817 819 820 822 824 826 828 829 830 831 832 833 833 834 834 834 835 835 835 836 836 836 836 836 836 837 838 838 839 839 840 840 840 841
704 695 698 702 703 702 693 689 690 690 704 710 692 690 707 706 685 676 683 688 691 692 692 693 692 694 698 701 704 708 711 715 718 723 730 738 745 750 756 761 764 766 769 772 775 777 779 782 785 787 790 792 794 796 798 800 802 803 806 808 810 813 814 816 819 819 820 823 826 828 828 830 831 832 833 834 834 834 834 835 835 836 836 836 836 836 837 837 838 838 839 839 840 840 841 841 841
703 701 701 701 704 704 698 690 685 695 713 707 684 679 697 706 688 672 675 679 681 686 689 689 688 689 693 697 701 704 707 713 717 721 727 735 743 749 755 759 761 764 767 770 773 775 778 780 783 786 788 791 792 794 797 798 799 801 803 806 809 811 813 815 817 818 819 822 825 826 828 829 831 832 833 834 834 835 834 835 836 836 836 836 837 837 838 838 839 839 840 840 841 841 841 842 842
703 704 699 703 710 710 711 704 694 708 719 700 678 672 688 703 687 664 663 668 672 678 682 685 686 687 689 694 697 699 704 709 714 720 726 733 742 748 753 757 759 762 765 768 771 774 776 778 782 785 787 789 791 793 795 796 798 800 802 804 808 810 812 813 815 816 818 820 822 824 826 829 830 832 834 834 834 835 835 835 836 837 837 837 838 838 839 839 840 841 841 842 842 842 843 843 843
702 703 698 710 719 720 727 722 710 714 708 687 674 673 683 690 674 657 656 660 666 670 672 677 681 682 685 689 693 695 699 705 710 717 724 732 742 746 749 754 757 760 763 765 769 771 774 777 779 782 785 787 789 791 794 795 796 799 801 804 807 809 810 812 814 815 817 818 820 822 825 828 830 832 833 833 834 834 835 836 837 837 837 838 838 839 840 841 842 842 843 843 843 843 844 844 844
701 700 698 710 716 724 733 724 716 715 700 679 668 670 683 684 667 655 651 651 660 665 665 669 673 677 680 682 687 691 694 700 706 713 722 730 738 743 746 750 753 757 760 763 766 769 771 774 777 779 782 785 787 788 791 794 795 798 801 803 806 808 809 811 813 815 816 818 819 821 824 827 829 831 832 833 833 834 835 836 837 837 838 839 839 840 841 842 843 843 844 844 844 845 845 845 845
697 688 690 700 699 708 719 712 711 711 697 679 668 674 687 682 663 651 646 644 653 661 661 662 667 671 675 678 683 687 691 696 702 710 719 726 734 740 743 746 750 753 757 760 764 766 768 772 774 777 779 782 785 786 789 792 794 797 799 802 805 807 808 810 812 814 815 817 819 821 824 826 828 830 831 832 833 834 834 835 837 837 838 839 840 841 842 843 844 844 845 845 845 845 846 846 847
693 681 686 693 683 686 698 696 693 694 694 686 677 679 676 665 654 645 643 645 650 659 659 660 666 669 673 678 680 684 689 693 699 708 717 724 731 737 739 743 747 750 754 758 761 763 766 769 772 775 777 780 783 785 788 791 793 796 798 801 804 805 807 809 811 813 814 816 818 821 823 825 826 828 830 831 832 833 834 835 836 837 838 840 840 841 842 843 844 845 845 846 846 846 847 847 847
690 684 689 682 667 672 689 695 688 689 700 693 681 679 666 657 660 651 646 650 653 660 660 659 665 668 672 678 678 682 687 691 698 705 713 720 727 733 736 740 744 747 751 755 758 761 764 767 770 773 775 778 781 784 786 789 792 794 797 800 802 804 806 808 809 812 814 816 819 821 823 825 826 828 829 831 832 832 834 835 836 837 839 840 841 841 842 843 845 845 846 846 847 847 848 848 848
686 687 684 673 665 668 679 695 699 701 706 690 677 680 672 669 672 660 651 653 656 662 662 660 663 666 671 675 675 679 684 690 696 701 708 717 723 728 733 738 741 745 749 752 756 760 763 766 768 770 773 776 779 782 784 787 790 793 796 798 801 803 805 807 809 811 814 816 818 820 822 825 826 827 829 830 831 832 833 835 836 837 838 840 841 842 843 844 845 846 846 847 847 848 848 848 848
678 678 672 671 681 683 681 690 699 705 706 691 678 677 673 671 669 662 659 657 658 662 662 661 663 664 668 672 674 677 681 689 696 700 707 714 720 725 729 735 739 743 747 751 755 758 761 765 767 769 772 775 778 780 783 786 788 791 794 797 800 802 804 806 808 811 813 815 816 818 821 824 825 827 828 829 830 831 833 834 836 837 838 839 841 842 843 844 845 846 847 847 848 848 849 849 849
676 676 670 667 676 681 680 680 683 691 697 690 684 683 676 662 655 660 662 657 659 661 660 660 660 661 665 668 671 674 679 688 695 701 707 711 716 721 726 732 736 740 745 748 753 756 759 763 765 768 771 773 776 779 781 784 787 790 793 796 799 801 803 806 807 809 812 813 814 817 820 823 824 826 827 828 830 831 833 834 835 837 838 839 841 842 843 844 846 847 847 848 848 849 849 849 849
682 682 678 673 672 672 676 675 668 673 683 685 689 693 677 650 642 653 657 653 654 656 656 657 656 658 662 664 669 673 677 685 691 698 706 709 713 719 724 730 734 739 744 747 751 754 757 761 763 766 769 772 775 778 780 783 786 789 792 795 797 800 802 804 806 808 811 812 813 816 820 822 823 825 826 828 829 831 833 834 835 836 838 839 841 842 843 845 846 847 848 848 849 849 849 850 850
678 680 676 674 674 674 684 687 671 662 669 675 682 688 672 644 635 643 648 649 650 649 652 654 653 657 661 664 669 672 676 682 687 695 703 707 711 716 721 727 732 737 741 745 749 752 755 759 761 764 767 770 773 776 779 782 785 788 791 793 796 799 801 803 804 807 809 811 813 816 819 821 822 824 826 827 829 831 832 833 834 836 838 839 841 842 843 844 846 847 848 848 849 849 850 850 850